Waarnemingen

Advertentie
Mijn weer
Arezzo, Italië (16172): temperatuur & dauwpunt: 14.11.2017 01:00:00 - 20.11.2017 01:00:00 (CET)Arezzo, Italië (16172): windsnelheid: 14.11.2017 01:00:00 - 20.11.2017 01:00:00 (CET)Arezzo, Italië (16172): windrichting: 14.11.2017 01:00:00 - 20.11.2017 01:00:00 (CET)Arezzo, Italië (16172): luchtdruk: 14.11.2017 01:00:00 - 20.11.2017 01:00:00 (CET)Arezzo, Italië (16172): zicht: 14.11.2017 01:00:00 - 20.11.2017 01:00:00 (CET)
Datum & Tijd tt [°C] td [°C] ff [km/u] ff [kn] dd ppp [hPa] vv [km]
20.11.2017 01:00:00 - - - - - - -
20.11.2017 00:00:00 - - - - - - -
19.11.2017 23:00:00 - - - - - - -
19.11.2017 22:00:00 3,0 2,4 4 2 ONO 1016,7 8
19.11.2017 21:00:00 - - - - - - -
19.11.2017 20:00:00 - - - - - - -
19.11.2017 19:00:00 6,0 3,5 4 2 N 1014,8 14
19.11.2017 18:00:00 - - - - - - -
19.11.2017 17:00:00 - - - - - - -
19.11.2017 16:00:00 10,6 5,4 9 5 Z 1013,5 15
19.11.2017 15:00:00 - - - - - - -
19.11.2017 14:00:00 - - - - - - -
19.11.2017 13:00:00 8,4 3,8 8 4 WZW 1015,1 14
19.11.2017 12:00:00 - - - - - - -
19.11.2017 11:00:00 - - - - - - -
19.11.2017 10:00:00 3,0 1,2 0 0 N 1016,5 15
19.11.2017 09:00:00 - - - - - - -
19.11.2017 08:00:00 - - - - - - -
19.11.2017 07:00:00 0,2 0,2 0 0 N 1016,9 12
19.11.2017 06:00:00 - - - - - - -
19.11.2017 05:00:00 - - - - - - -
19.11.2017 04:00:00 0,0 0,0 0 0 N 1017,9 10
19.11.2017 03:00:00 - - - - - - -
19.11.2017 02:00:00 - - - - - - -
19.11.2017 01:00:00 0,8 0,8 0 0 N 1018,4 10
19.11.2017 00:00:00 - - - - - - -
18.11.2017 23:00:00 - - - - - - -
18.11.2017 22:00:00 4,0 2,7 0 0 N 1018,0 10
18.11.2017 21:00:00 - - - - - - -
18.11.2017 20:00:00 - - - - - - -
18.11.2017 19:00:00 8,0 2,9 5 3 NO 1017,2 13
18.11.2017 18:00:00 - - - - - - -
18.11.2017 17:00:00 - - - - - - -
18.11.2017 16:00:00 11,2 3,0 9 5 N 1016,7 16
18.11.2017 15:00:00 - - - - - - -
18.11.2017 14:00:00 - - - - - - -
18.11.2017 13:00:00 12,8 3,7 15 8 ONO 1016,6 17
18.11.2017 12:00:00 - - - - - - -
18.11.2017 11:00:00 - - - - - - -
18.11.2017 10:00:00 11,0 4,0 9 5 N 1017,1 16
18.11.2017 09:00:00 - - - - - - -
18.11.2017 08:00:00 - - - - - - -
18.11.2017 07:00:00 4,0 2,8 0 0 N 1017,1 12
18.11.2017 06:00:00 - - - - - - -
18.11.2017 05:00:00 - - - - - - -
18.11.2017 04:00:00 8,4 3,7 5 3 NO 1016,6 12
18.11.2017 03:00:00 - - - - - - -
18.11.2017 02:00:00 - - - - - - -
18.11.2017 01:00:00 5,4 5,1 4 2 O 1017,4 10
18.11.2017 00:00:00 - - - - - - -
17.11.2017 23:00:00 - - - - - - -
17.11.2017 22:00:00 7,0 4,7 4 2 N 1017,3 10
17.11.2017 21:00:00 - - - - - - -
17.11.2017 20:00:00 - - - - - - -
17.11.2017 19:00:00 9,2 4,0 8 4 NO 1016,9 15
17.11.2017 18:00:00 - - - - - - -
17.11.2017 17:00:00 - - - - - - -
17.11.2017 16:00:00 11,8 3,6 9 5 NO 1015,6 20
17.11.2017 15:00:00 - - - - - - -
17.11.2017 14:00:00 - - - - - - -
17.11.2017 13:00:00 13,4 4,0 11 6 N 1016,6 20
17.11.2017 12:00:00 - - - - - - -
17.11.2017 11:00:00 - - - - - - -
17.11.2017 10:00:00 10,2 2,6 4 2 N 1018,1 17
17.11.2017 09:00:00 - - - - - - -
17.11.2017 08:00:00 - - - - - - -
17.11.2017 07:00:00 4,8 3,0 4 2 ZO 1018,0 14
17.11.2017 06:00:00 - - - - - - -
17.11.2017 05:00:00 - - - - - - -
17.11.2017 04:00:00 7,2 3,4 9 5 NNO 1018,1 13
17.11.2017 03:00:00 - - - - - - -
17.11.2017 02:00:00 - - - - - - -
17.11.2017 01:00:00 6,8 3,4 4 2 ONO 1018,5 14
17.11.2017 00:00:00 - - - - - - -
16.11.2017 23:00:00 - - - - - - -
16.11.2017 22:00:00 6,8 2,5 5 3 ONO 1018,3 16
16.11.2017 21:00:00 - - - - - - -
16.11.2017 20:00:00 - - - - - - -
16.11.2017 19:00:00 8,4 2,0 5 3 N 1017,4 18
16.11.2017 18:00:00 - - - - - - -
16.11.2017 17:00:00 - - - - - - -
16.11.2017 16:00:00 10,6 3,2 0 0 N 1017,2 18
16.11.2017 15:00:00 - - - - - - -
16.11.2017 14:00:00 - - - - - - -
16.11.2017 13:00:00 13,2 4,4 9 5 NNO 1017,6 18
16.11.2017 12:00:00 - - - - - - -
16.11.2017 11:00:00 - - - - - - -
16.11.2017 10:00:00 10,8 4,0 5 3 NO 1018,5 15
16.11.2017 09:00:00 - - - - - - -
16.11.2017 08:00:00 - - - - - - -
16.11.2017 07:00:00 7,4 3,8 5 3 NNO 1018,5 13
16.11.2017 06:00:00 - - - - - - -
16.11.2017 05:00:00 - - - - - - -
16.11.2017 04:00:00 8,0 4,8 5 3 N 1018,2 13
16.11.2017 03:00:00 - - - - - - -
16.11.2017 02:00:00 - - - - - - -
16.11.2017 01:00:00 8,0 3,8 4 2 NNO 1019,2 15
16.11.2017 00:00:00 - - - - - - -
15.11.2017 23:00:00 - - - - - - -
15.11.2017 22:00:00 9,0 4,2 8 4 N 1018,8 15
15.11.2017 21:00:00 - - - - - - -
15.11.2017 20:00:00 - - - - - - -
15.11.2017 19:00:00 8,2 3,1 9 5 NO 1018,2 16
15.11.2017 18:00:00 - - - - - - -
15.11.2017 17:00:00 - - - - - - -
15.11.2017 16:00:00 8,8 2,8 16 9 O 1017,9 17
15.11.2017 15:00:00 - - - - - - -
15.11.2017 14:00:00 - - - - - - -
15.11.2017 13:00:00 10,4 3,7 15 8 NNO 1017,3 17
15.11.2017 12:00:00 - - - - - - -
15.11.2017 11:00:00 - - - - - - -
15.11.2017 10:00:00 8,8 3,0 15 8 NNO 1017,4 15
15.11.2017 09:00:00 - - - - - - -
15.11.2017 08:00:00 - - - - - - -
15.11.2017 07:00:00 7,8 1,6 18 10 N 1016,2 12
15.11.2017 06:00:00 - - - - - - -
15.11.2017 05:00:00 - - - - - - -
15.11.2017 04:00:00 8,0 1,6 15 8 NNO 1015,0 12
15.11.2017 03:00:00 - - - - - - -
15.11.2017 02:00:00 - - - - - - -
15.11.2017 01:00:00 8,6 2,2 18 10 NNO 1014,9 12
15.11.2017 00:00:00 - - - - - - -
14.11.2017 23:00:00 - - - - - - -
14.11.2017 22:00:00 8,4 1,3 15 8 NNO 1015,0 14
14.11.2017 21:00:00 - - - - - - -
14.11.2017 20:00:00 - - - - - - -
14.11.2017 19:00:00 8,6 0,6 11 6 NNO 1014,2 14
14.11.2017 18:00:00 - - - - - - -
14.11.2017 17:00:00 - - - - - - -
14.11.2017 16:00:00 8,2 0,9 18 10 NNO 1013,9 14
14.11.2017 15:00:00 - - - - - - -
14.11.2017 14:00:00 - - - - - - -
14.11.2017 13:00:00 10,0 1,4 24 13 NNO 1012,8 16
14.11.2017 12:00:00 - - - - - - -
14.11.2017 11:00:00 - - - - - - -
14.11.2017 10:00:00 8,0 1,8 21 11 N 1012,0 16
14.11.2017 09:00:00 - - - - - - -
14.11.2017 08:00:00 - - - - - - -
14.11.2017 07:00:00 6,8 1,1 11 6 ZZW 1009,9 14
14.11.2017 06:00:00 - - - - - - -
14.11.2017 05:00:00 - - - - - - -
14.11.2017 04:00:00 6,0 1,3 9 5 NNO 1007,5 12
14.11.2017 03:00:00 - - - - - - -
14.11.2017 02:00:00 - - - - - - -
14.11.2017 01:00:00 5,0 0,0 15 8 NNO 1005,6 12

tt = temperatuur
td = dauwpunt
ff = windsnelheid
dd = windrichting
ppp = luchtdruk
vv = zicht

Weerstations in de omgeving